Showing default

QIANFAN-35, 61568

Orbit data source: Space-Track

QIANFAN-35, 61568 is a Chinese payload satellite in LEO that was launched on Tue, 15 Oct 2024 UTC via a CHANG ZHENG 6A launch vehicle from the Taiyaun Space Center, China (TSC). Payload-class satellites include a variety of spacecraft equipped with specific instruments for various scientific and technological missions. These include communications satellites like Starlink; space stations such as the ISS; scientific satellites like the Hubble; Earth observation satellites from companies like Planet Labs, Umbra, and HawkEye 360; GPS; miniature CubeSats for education and research; and military/defense satellites.

Loading next visibility...
Identifier
61568, 2024-185S
Orbit
LEO
Country
Flag of CNCN / PRC
Related business
Manufacturer
GESIH/SECM
Mission
Partially operational Commercial Communications
Bus & Motor
QIANFAN, Unknown motor
Mass
267 kg wet, ~267 kg dry
Launch date (UTC)
2024-10-15 (1 year ago)
Launch vehicle
CHANG ZHENG 6A
Launch site
Taiyaun Space Center, China (TSC)
Object type
Payload
Rocket body
Debris
Shape & HBR
Box + 1 Pan, 5.0 m
Radar Cross Section
13.200 m², Large (>1 m²)

Expand to show TLE details & history
Last TLE update: 6 hours ago

TLE from 6 hours ago
0 QIANFAN-35
1 61568U 24185S   26034.25141741  .00000731  00000-0  28862-3 0  9996
2 61568  88.9750  70.7124 0008794 108.5670 251.6481 14.28069723 77677
Epoch: 2026-02-03T06:02Z
TLE epoch observation values (Epoch: 2026-02-03T06:02:02.464Z)
Latitude
0.00004°
Longitude
-153.2329°
Altitude
803.247 km
Speed
7.451 km/s
True Right ascension
04h 42m 50s
True Declination
0° 00' 00"
Sunlit
Object was in daylight at epoch
Visualization orbit readout
Latitude
Unknown
Longitude
Unknown
Altitude
Unknown
Speed
Unknown
Apparent Right ascension
Unknown
Apparent Declination
Unknown
Sunlit
N/A
Visualization observer readout
Local Sidereal Time
13:45:16
Azimuth
Unknown
Elevation
Unknown
Doppler factor
Unknown
Orbital elements
Apogee altitude
801.438 km
Perigee altitude
788.822 km
Semi-major axis
7,173.267 km
Eccentricity
0.00088
Inclination
88.975°
RAAN
70.7124°
Arg. of periapsis
108.567°
True anomaly
251.55249°
Mean anomaly
251.6481°
Eccentric anomaly
251.60029°
Mean motion
3.57246 °/min
Orbital period
100.77 mins
BSTAR
0.00028862
Loading maneuver chart data...
Computing Atmospheric mass density...
Loading historical data...
Loading historical data...
Loading historical data...
Loading historical data...
Loading historical data...
Loading historical data...
Loading historical data...

Documentation

Showing up to 5 results
|